Flag for USA

Past Weather in Asheville, North Carolina, USA — Yesterday and Last 2 Weeks

Now
79 °F

Passing clouds.


Feels Like: 81 °F
Forecast: 86 / 67 °F
Wind: No wind

Location: Asheville Regional Airport

Current Time: Jul 14, 2020 at 11:20:12 pm

Latest Report: Jul 14, 2020 at 9:54 pm


Visibility: 10 mi

Pressure: 30.04 "Hg (27.90 "Hg at 647m altitude)

Humidity: 62%

Dew Point: 65 °F

Location of AshevilleLocation

Past Weather in Asheville — Graph

°F

Asheville Temperature Yesterday

Maximum temperature yesterday: 87 °F (at 3:54 pm)
Minimum temperature yesterday: 66 °F (at 5:54 am)
Average temperature yesterday: 76 °F

High & Low Weather Summary for the Past Weeks

 TemperatureHumidityPressure
High89 °F (Jul 4, 2:54 pm)100% (Jul 5, 6:06 am)30.14 "Hg (Jul 5, 6:06 am)
Low61 °F (Jul 12, 5:54 am)35% (Jul 2, 4:54 pm)29.79 "Hg (Jul 12, 4:54 pm)
Average74 °F77%29.96 "Hg
* Reported Jun 29 9:54 pm — Jul 14 9:54 pm, Asheville. Weather by CustomWeather, © 2020

Note: Actual official high and low records may vary slightly from our data, if they occured in-between our weather recording intervals... More about our weather records

Asheville Weather History for the Previous 24 Hours

Scroll right to see more
 ConditionsComfort  
Time TempWeatherWind HumidityBarometerVisibility
9:54 pm
Tue, Jul 14
79 °FPassing clouds.No wind62%30.04 "Hg10 mi
8:54 pm81 °FClear.No wind62%30.02 "Hg10 mi
7:54 pm83 °FScattered clouds.6 mph55%30.01 "Hg10 mi
6:54 pm86 °FScattered clouds.7 mph48%30.00 "Hg10 mi
5:54 pm85 °FPassing clouds.5 mph50%30.00 "Hg10 mi
4:54 pm86 °FSunny.7 mph46%29.99 "Hg10 mi
3:54 pm88 °FSunny.3 mph38%29.99 "Hg10 mi
2:54 pm88 °FSunny.No wind38%29.99 "Hg10 mi
1:54 pm86 °FPassing clouds.5 mph43%30.00 "Hg10 mi
12:54 pm85 °FSunny.6 mph46%30.01 "Hg10 mi
11:54 am84 °FSunny.6 mph49%30.03 "Hg9 mi
10:54 am81 °FSunny.3 mph56%30.03 "Hg10 mi
9:54 am76 °FSunny.7 mph62%30.03 "Hg10 mi
8:54 am72 °FSunny.8 mph73%30.03 "Hg10 mi
7:54 am69 °FSunny.3 mph81%30.01 "Hg10 mi
6:54 am65 °FSunny.3 mph91%29.99 "Hg10 mi
5:54 am66 °FClear.3 mph87%29.97 "Hg10 mi
4:54 am67 °FPassing clouds.No wind87%29.96 "Hg10 mi
3:54 am68 °FPassing clouds.3 mph84%29.96 "Hg10 mi
2:54 am69 °FPassing clouds.3 mph81%29.96 "Hg10 mi
1:54 am69 °FPassing clouds.5 mph81%29.96 "Hg10 mi
12:54 am71 °FClear.5 mph76%29.96 "Hg10 mi
11:54 pm
Mon, Jul 13
73 °FPassing clouds.5 mph71%29.96 "Hg10 mi
Weather by CustomWeather, © 2020

See weather overview